Location: Unspecified
(0.0000°N, 0.0000°E)
Time: 01:33:06
(UTC+00:00)

Explorer 11/Cluster Stage 4 - All Passes

Search period start: 30 August 2015 00:00
Search period end: 09 September 2015 00:00
Orbit: 467 x 1270 km, 28.8° (Epoch: 29 August)

Date Brightness Start Highest point End Pass type
(mag) Time Alt. Az. Time Alt. Az. Time Alt. Az.
30 Aug - 01:03:56 10° WSW 01:09:01 90° NW 01:15:30 10° ENE night (unlit)
30 Aug - 02:53:28 10° WNW 02:58:29 26° NNW 03:04:14 10° NNE visible
30 Aug - 10:18:33 10° NNW 10:23:45 19° NNE 10:28:39 10° ENE daylight
30 Aug - 12:06:38 10° NW 12:13:48 55° NNE 12:19:36 10° ESE daylight
30 Aug - 13:56:55 10° W 14:02:44 36° SSW 14:07:25 10° SSE daylight
30 Aug - 23:08:27 10° SSW 23:11:42 21° SSE 23:15:33 10° E night (unlit)
31 Aug - 00:55:20 10° WSW 01:00:12 71° NNW 01:06:24 10° NE night (unlit)
31 Aug - 02:45:22 10° WNW 02:49:46 20° NNW 02:54:41 10° NNE visible
31 Aug - 10:09:00 10° NNW 10:14:59 23° NNE 10:20:34 10° ENE daylight
31 Aug - 11:57:25 10° NW 12:04:55 69° NNE 12:11:01 10° ESE daylight
31 Aug - 13:48:11 10° W 13:53:52 30° SSW 13:58:31 10° SSE daylight
31 Aug - 22:59:27 10° SSW 23:02:55 26° SSE 23:07:03 10° E night (unlit)
01 Sep - 00:46:48 10° WSW 00:51:27 54° NNW 00:57:16 10° NE night (unlit)
01 Sep - 02:37:28 10° WNW 02:41:06 16° NNW 02:44:59 10° NNE visible
01 Sep - 08:13:41 10° N 08:15:21 11° NNE 08:17:16 10° NNE daylight
01 Sep - 09:59:31 10° NNW 10:06:10 28° NNE 10:12:19 10° E daylight
01 Sep - 11:48:15 10° WNW 11:56:01 83° NNE 12:02:21 10° ESE daylight
01 Sep - 13:39:32 10° W 13:45:00 25° SSW 13:49:32 10° SSE daylight
01 Sep - 22:50:32 10° SSW 22:54:09 32° SSE 22:58:26 10° E night (unlit)
02 Sep - 00:38:22 10° W 00:42:42 40° NNW 00:48:03 10° NE night (unlit)
02 Sep - 02:29:58 10° NW 02:32:27 12° NNW 02:34:57 10° N visible
02 Sep - 08:03:30 10° N 08:06:38 13° NNE 08:10:03 10° NE daylight
02 Sep - 09:50:07 10° NW 09:57:19 33° NNE 10:03:56 10° E daylight
02 Sep - 11:39:08 10° WNW 11:47:04 82° SSW 11:53:36 10° SE daylight
02 Sep - 13:30:57 10° W 13:36:09 22° SSW 13:40:29 10° SSE daylight
02 Sep - 22:41:42 10° SW 22:45:23 42° SSE 22:49:45 10° ENE night (unlit)
03 Sep - 00:30:02 10° W 00:34:00 30° NNW 00:38:45 10° NE night (unlit)
03 Sep - 07:53:45 10° N 07:57:54 15° NNE 08:02:17 10° NE daylight
03 Sep - 09:40:48 10° NW 09:48:24 40° NNE 09:55:26 10° E daylight
03 Sep - 11:30:06 10° WNW 11:38:05 69° SSW 11:44:47 10° SE daylight
03 Sep - 13:22:29 10° WSW 13:27:18 19° SSW 13:31:21 10° SSE daylight
03 Sep - 22:32:54 10° SW 22:36:39 58° SSE 22:40:59 10° ENE night (unlit)
04 Sep - 00:21:50 10° WNW 00:25:20 23° NNW 00:29:23 10° NNE night (unlit)
04 Sep - 07:44:12 10° NNW 07:49:06 17° NNE 07:54:17 10° ENE daylight
04 Sep - 09:31:32 10° NW 09:39:27 47° NNE 09:46:50 10° E daylight
04 Sep - 11:21:08 10° WNW 11:29:06 58° SSW 11:35:54 10° SE daylight
04 Sep - 13:14:09 10° WSW 13:18:28 16° SSW 13:22:08 10° S daylight
04 Sep - 20:39:18 10° SSE 20:39:32 10° SSE 20:39:54 10° SSE night (unlit)
04 Sep - 22:24:12 10° WSW 22:27:55 82° SSE 22:32:10 10° ENE night (unlit)
05 Sep - 00:13:50 10° WNW 00:16:42 17° NNW 00:19:50 10° NNE night (unlit)
05 Sep - 07:34:46 10° NNW 07:40:16 20° NNE 07:46:06 10° ENE daylight
05 Sep - 09:22:20 10° NW 09:30:27 57° NNE 09:38:08 10° ESE daylight
05 Sep - 11:12:13 10° WNW 11:20:05 49° SSW 11:26:56 10° SE daylight
05 Sep - 13:05:58 10° WSW 13:09:39 14° SSW 13:12:48 10° S daylight
05 Sep - 20:29:00 10° S 20:30:52 14° SSE 20:32:50 10° ESE night (unlit)
05 Sep - 22:15:33 10° WSW 22:19:12 70° NNW 22:23:17 10° NE night (unlit)
06 Sep - 00:06:13 10° NW 00:08:05 12° NNW 00:09:59 10° N night (unlit)
06 Sep - 07:25:25 10° NNW 07:31:24 23° NNE 07:37:46 10° ENE daylight
06 Sep - 09:13:11 10° NW 09:21:26 67° NNE 09:29:22 10° ESE daylight
06 Sep - 11:03:23 10° W 11:11:05 42° SSW 11:17:55 10° SE daylight
06 Sep - 12:58:00 10° SW 13:00:52 12° SSW 13:03:17 10° S daylight
06 Sep - 20:19:35 10° SSW 20:22:11 18° SSE 20:24:49 10° ESE visible
06 Sep - 22:06:59 10° WSW 22:10:30 47° NNW 22:14:20 10° NE night (unlit)
07 Sep - 07:16:08 10° NNW 07:22:29 27° NNE 07:29:19 10° E daylight
07 Sep - 09:04:06 10° NW 09:12:23 79° NNE 09:20:30 10° ESE daylight
07 Sep - 10:54:38 10° W 11:02:05 36° SSW 11:08:49 10° SSE daylight
07 Sep - 12:50:33 10° SW 12:52:07 11° SSW 12:53:17 10° SSW daylight
07 Sep - 20:10:23 10° SSW 20:13:31 25° SSE 20:16:34 10° E visible
07 Sep - 21:58:31 10° W 22:01:49 33° NNW 22:05:18 10° NE night (unlit)
08 Sep - 07:06:55 10° NNW 07:13:32 31° NNE 07:20:44 10° E daylight
08 Sep - 08:55:06 10° WNW 09:03:19 89° SSW 09:11:33 10° ESE daylight
08 Sep - 10:45:59 10° W 10:53:07 31° SSW 10:59:40 10° SSE daylight
08 Sep - 20:01:18 10° SW 20:04:50 35° SSE 20:08:11 10° E visible
08 Sep - 21:50:08 10° W 21:53:08 24° NNW 21:56:11 10° NNE night (unlit)
